| time (UTC) | temp F | wind direction | speed knots | gust knots | rain 1hr in | rain 24hr in | rain mn in | humidity % | barometer mb |
| 20260902093011 | 59 | 121 | 0.0 | 0.0 | 0.00 | 0.05 | 0.00 | 93 | 1019.5 |
| 20260902091508 | 60 | 121 | 0.0 | 0.0 | 0.00 | 0.05 | 0.00 | 93 | 1019.4 |
| 20260902090007 | 60 | 121 | 0.0 | 0.0 | 0.00 | 0.05 | 0.00 | 93 | 1019.2 |
| 20260902084505 | 60 | 121 | 0.0 | 0.0 | 0.00 | 0.05 | 0.00 | 93 | 1019.0 |
| 20260902083004 | 61 | 121 | 0.0 | 0.0 | 0.00 | 0.05 | 0.00 | 93 | 1019.2 |
| 20260902081513 | 61 | 121 | 0.0 | 0.0 | 0.00 | 0.05 | 0.00 | 93 | 1019.1 |
| 20260902080005 | 61 | 121 | 0.0 | 0.0 | 0.00 | 0.05 | 0.00 | 93 | 1019.2 |
| 20260902074501 | 61 | 121 | 0.0 | 0.0 | 0.00 | 0.05 | 0.00 | 93 | 1019.3 |
| 20260902073101 | 61 | 121 | 0.0 | 0.0 | 0.00 | 0.05 | 0.00 | 93 | 1019.2 |
| 20260902071601 | 61 | 121 | 0.0 | 0.0 | 0.00 | 0.05 | 0.00 | 93 | 1019.0 |
| 20260902070104 | 61 | 121 | 0.0 | 0.0 | 0.00 | 0.05 | 0.00 | 93 | 1019.0 |
| 20260902064605 | 61 | 121 | 0.0 | 0.0 | 0.00 | 0.05 | 0.00 | 93 | 1019.0 |
| 20260902063057 | 61 | 121 | 0.0 | 0.0 | 0.00 | 0.05 | 0.00 | 93 | 1019.0 |
| 20260902061612 | 61 | 121 | 0.0 | 0.0 | 0.00 | 0.05 | 0.00 | 93 | 1019.0 |
| 20260902060058 | 61 | 121 | 0.0 | 0.0 | 0.00 | 0.05 | 0.00 | 93 | 1019.2 |
| 20260902054601 | 61 | 121 | 0.0 | 0.0 | 0.00 | 0.05 | 0.00 | 92 | 1019.1 |
| 20260902053055 | 61 | 121 | 0.0 | 0.0 | 0.00 | 0.05 | 0.00 | 92 | 1019.1 |
| 20260902051556 | 61 | 121 | 0.0 | 0.0 | 0.00 | 0.05 | 0.00 | 92 | 1019.0 |
| 20260902050100 | 61 | 121 | 0.0 | 0.0 | 0.00 | 0.05 | 0.00 | 92 | 1018.8 |
| 20260902044548 | 61 | 121 | 0.0 | 0.0 | 0.00 | 0.05 | 0.00 | 92 | 1018.6 |
| 20260902043045 | 61 | 121 | 0.0 | 0.0 | 0.00 | 0.05 | 0.00 | 92 | 1018.1 |
| 20260902041556 | 61 | 121 | 0.0 | 0.0 | 0.00 | 0.05 | 0.00 | 92 | 1017.9 |
| 20260902040042 | 61 | 121 | 0.0 | 0.0 | 0.00 | 0.05 | 0.00 | 92 | 1018.2 |
| 20260902034544 | 61 | 121 | 0.0 | 0.0 | 0.00 | 0.05 | 0.05 | 92 | 1018.0 |
| 20260902033045 | 61 | 121 | 0.0 | 0.0 | 0.00 | 0.05 | 0.05 | 91 | 1017.7 |
| 20260902031540 | 61 | 121 | 0.0 | 0.0 | 0.00 | 0.05 | 0.05 | 91 | 1018.0 |
| 20260902030041 | 61 | 121 | 0.0 | 0.0 | 0.00 | 0.05 | 0.05 | 91 | 1018.1 |
| 20260902024542 | 61 | 121 | 0.0 | 0.0 | 0.00 | 0.05 | 0.05 | 90 | 1018.0 |
| 20260902023037 | 61 | 121 | 0.0 | 0.0 | 0.00 | 0.05 | 0.05 | 90 | 1018.0 |
| 20260902021546 | 62 | 121 | 0.0 | 0.0 | 0.00 | 0.05 | 0.05 | 90 | 1017.8 |
| 20260902020034 | 62 | 121 | 0.0 | 0.0 | 0.00 | 0.05 | 0.05 | 90 | 1018.0 |
| 20260902014537 | 63 | 121 | 0.0 | 0.0 | 0.00 | 0.05 | 0.05 | 90 | 1017.9 |
| 20260902013032 | 63 | 121 | 0.0 | 0.0 | 0.00 | 0.05 | 0.05 | 90 | 1017.7 |
| 20260902011536 | 63 | 121 | 0.0 | 0.0 | 0.00 | 0.05 | 0.05 | 89 | 1017.8 |
| 20260902010042 | 63 | 121 | 0.0 | 0.0 | 0.00 | 0.05 | 0.05 | 89 | 1017.7 |
| 20260902004533 | 64 | 121 | 0.0 | 0.0 | 0.00 | 0.05 | 0.05 | 89 | 1017.3 |
| 20260902003025 | 64 | 121 | 0.0 | 0.0 | 0.00 | 0.05 | 0.05 | 89 | 1017.3 |
| 20260902001524 | 64 | 121 | 0.0 | 0.0 | 0.00 | 0.05 | 0.05 | 88 | 1017.4 |
| 20260902000036 | 64 | 121 | 0.0 | 0.0 | 0.00 | 0.05 | 0.05 | 88 | 1017.6 |
| 20260901234546 | 65 | 121 | 0.0 | 0.0 | 0.00 | 0.05 | 0.05 | 88 | 1017.4 |
| 20260901233019 | 65 | 121 | 0.0 | 0.0 | 0.00 | 0.05 | 0.05 | 88 | 1017.3 |
| 20260901231519 | 65 | 121 | 0.0 | 0.0 | 0.00 | 0.05 | 0.05 | 87 | 1017.3 |
| 20260901230017 | 65 | 121 | 0.0 | 0.0 | 0.00 | 0.05 | 0.05 | 87 | 1017.1 |
| 20260901224517 | 66 | 121 | 0.0 | 0.0 | 0.00 | 0.05 | 0.05 | 86 | 1017.1 |
| 20260901223027 | 66 | 120 | 0.0 | 1.7 | 0.00 | 0.05 | 0.05 | 86 | 1017.1 |
| 20260901221522 | 66 | 120 | 0.0 | 0.9 | 0.00 | 0.05 | 0.05 | 86 | 1017.2 |
| 20260901220018 | 66 | 119 | 0.0 | 0.0 | 0.00 | 0.05 | 0.05 | 85 | 1017.3 |
| 20260901214512 | 66 | 119 | 0.0 | 0.9 | 0.00 | 0.05 | 0.05 | 84 | 1017.1 |
| 20260901213011 | 67 | 119 | 0.0 | 0.0 | 0.00 | 0.05 | 0.05 | 84 | 1017.1 |
| 20260901211513 | 67 | 119 | 0.0 | 0.0 | 0.00 | 0.05 | 0.05 | 84 | 1017.0 |
| 20260901210010 | 67 | 119 | 0.0 | 0.0 | 0.00 | 0.05 | 0.05 | 83 | 1016.9 |
| 20260901204508 | 66 | 119 | 0.0 | 0.9 | 0.00 | 0.05 | 0.05 | 84 | 1016.8 |
| 20260901203017 | 67 | 119 | 0.0 | 1.7 | 0.00 | 0.05 | 0.05 | 84 | 1016.6 |
| 20260901201508 | 66 | 119 | 0.0 | 3.5 | 0.00 | 0.05 | 0.05 | 84 | 1016.5 |
| 20260901200020 | 67 | 117 | 0.0 | 0.9 | 0.00 | 0.05 | 0.05 | 85 | 1016.5 |
| 20260901194507 | 67 | 124 | 0.0 | 1.7 | 0.00 | 0.05 | 0.05 | 86 | 1016.5 |
| 20260901193007 | 66 | 123 | 0.0 | 3.5 | 0.00 | 0.05 | 0.05 | 85 | 1016.5 |
| 20260901191512 | 67 | 133 | 0.0 | 1.7 | 0.00 | 0.05 | 0.05 | 87 | 1016.4 |
| 20260901190017 | 67 | 132 | 0.0 | 2.6 | 0.01 | 0.05 | 0.05 | 87 | 1016.3 |
| 20260901184505 | 68 | 136 | 0.0 | 5.2 | 0.01 | 0.05 | 0.05 | 87 | 1016.3 |
| 20260901183013 | 68 | 121 | 0.0 | 2.6 | 0.01 | 0.05 | 0.05 | 87 | 1016.2 |
| 20260901181505 | 68 | 82 | 0.0 | 0.9 | 0.01 | 0.05 | 0.05 | 87 | 1016.1 |
| 20260901180003 | 68 | 82 | 0.0 | 0.0 | 0.00 | 0.04 | 0.04 | 86 | 1016.0 |
| 20260901174504 | 69 | 82 | 0.0 | 0.9 | 0.00 | 0.04 | 0.04 | 85 | 1015.9 |
| 20260901173003 | 70 | 96 | 0.0 | 2.6 | 0.00 | 0.04 | 0.04 | 86 | 1015.7 |
| 20260901171502 | 70 | 61 | 0.0 | 4.3 | 0.00 | 0.04 | 0.04 | 84 | 1016.0 |
| 20260901170104 | 70 | 46 | 0.9 | 4.3 | 0.00 | 0.04 | 0.04 | 82 | 1016.1 |
| 20260901164633 | 71 | 71 | 0.0 | 1.7 | 0.00 | 0.04 | 0.04 | 81 | 1016.0 |
| 20260901163100 | 71 | 89 | 0.0 | 4.3 | 0.01 | 0.04 | 0.04 | 82 | 1015.7 |
| 20260901161600 | 71 | 147 | 0.0 | 1.7 | 0.01 | 0.04 | 0.04 | 83 | 1016.0 |
| 20260901160100 | 71 | 101 | 0.0 | 4.3 | 0.01 | 0.04 | 0.04 | 84 | 1016.0 |
| 20260901154554 | 70 | 46 | 0.0 | 5.2 | 0.01 | 0.04 | 0.04 | 86 | 1016.1 |
| 20260901153051 | 70 | 98 | 0.9 | 2.6 | 0.00 | 0.03 | 0.03 | 89 | 1016.3 |
| 20260901151549 | 69 | 131 | 0.0 | 2.6 | 0.00 | 0.03 | 0.03 | 90 | 1016.2 |
| 20260901150045 | 68 | 47 | 0.0 | 2.6 | 0.00 | 0.03 | 0.03 | 90 | 1016.5 |
| 20260901144543 | 68 | 77 | 0.9 | 3.5 | 0.00 | 0.03 | 0.03 | 90 | 1016.6 |
| 20260901143045 | 68 | 52 | 0.0 | 2.6 | 0.01 | 0.03 | 0.03 | 91 | 1016.6 |
| 20260901141552 | 68 | 88 | 0.0 | 1.7 | 0.01 | 0.03 | 0.03 | 91 | 1016.6 |
| 20260901140043 | 67 | 137 | 0.0 | 0.0 | 0.03 | 0.03 | 0.03 | 91 | 1016.8 |
| 20260901134539 | 67 | 137 | 0.0 | 0.0 | 0.03 | 0.03 | 0.03 | 91 | 1016.7 |
| 20260901133041 | 67 | 137 | 0.0 | 0.0 | 0.02 | 0.02 | 0.02 | 91 | 1016.6 |
| 20260901131535 | 67 | 137 | 0.0 | 0.0 | 0.01 | 0.01 | 0.01 | 90 | 1016.8 |
| 20260901130031 | 66 | 137 | 0.0 | 0.0 | 0.00 | 0.00 | 0.00 | 90 | 1016.6 |
| 20260901124530 | 66 | 137 | 0.0 | 0.9 | 0.00 | 0.00 | 0.00 | 90 | 1016.5 |
| 20260901123029 | 66 | 137 | 0.0 | 0.0 | 0.00 | 0.00 | 0.00 | 90 | 1016.7 |
| 20260901121529 | 66 | 137 | 0.0 | 0.0 | 0.00 | 0.00 | 0.00 | 90 | 1016.5 |
| 20260901120028 | 66 | 137 | 0.0 | 0.0 | 0.00 | 0.00 | 0.00 | 90 | 1016.4 |
| 20260901114526 | 66 | 137 | 0.0 | 0.0 | 0.00 | 0.00 | 0.00 | 90 | 1016.4 |
| 20260901113026 | 66 | 137 | 0.0 | 0.0 | 0.00 | 0.00 | 0.00 | 90 | 1016.3 |
| 20260901111525 | 65 | 137 | 0.0 | 0.0 | 0.00 | 0.00 | 0.00 | 90 | 1016.2 |
| 20260901110036 | 65 | 137 | 0.0 | 0.0 | 0.00 | 0.00 | 0.00 | 90 | 1016.2 |
| 20260901104520 | 65 | 137 | 0.0 | 0.0 | 0.00 | 0.01 | 0.00 | 90 | 1016.1 |
| 20260901103020 | 65 | 137 | 0.0 | 0.0 | 0.00 | 0.01 | 0.00 | 90 | 1016.1 |
| 20260901101520 | 65 | 137 | 0.0 | 0.0 | 0.00 | 0.01 | 0.00 | 89 | 1015.9 |
| 20260901100017 | 65 | 137 | 0.0 | 0.9 | 0.00 | 0.01 | 0.00 | 89 | 1015.8 |
| 20260901094525 | 65 | 137 | 0.0 | 0.0 | 0.00 | 0.01 | 0.00 | 89 | 1015.8 |